Miscellaneous Local Product
Issued by NWS Hastings, NE

Home | Current Version | Previous Version | Text Only | Print | Product List | Glossary Off
Versions: 1 2 3 4 5 6 7 8 9 10 11 12 13 14 15 16 17 18 19 20 21 22 23 24 25 26 27 28 29 30 31 32 33 34 35 36 37 38 39 40 41 42 43 44 45 46 47 48 49 50

000
AXUS43 KGID 190002
MISGRI

GID CWA HOURLY WEATHER ROUNDUP
NATIONAL WEATHER SERVICE HASTINGS NE
700 PM CDT FRI APR 18 2014

NOTE: "FAIR" INDICATES FEW OR NO CLOUDS BELOW 12,000 FEET WITH NO
SIGNIFICANT WEATHER AND/OR OBSTRUCTIONS TO VISIBILITY.

...SOUTH CENTRAL NEBRASKA...

CITY           SKY/WX    TMP DP  RH WIND       PRES   REMARKS
GRAND ISLAND   CLOUDY    68  41  37 S23G30    29.99F
HASTINGS       CLOUDY    68  40  35 S20G31    29.98F
KEARNEY        CLOUDY    70  43  37 S29       29.97S
ORD            CLOUDY    70  41  34 S20G28    29.92F
YORK           CLOUDY    66  41  39 S21G29    30.02F
AURORA         CLOUDY    69  42  37 S18G31    30.00F
LEXINGTON      MOSUNNY   70  42  35 S24G30    29.92F
HOLDREGE       PTSUNNY   69  39  33 S20G29    29.96S
HEBRON         PTSUNNY   69  40  34 S15G23    30.04F

...NEBRASKA PANHANDLE...

CITY           SKY/WX    TMP DP  RH WIND       PRES   REMARKS
CHADRON        PTSUNNY   73  43  33 S12       29.65F
ALLIANCE       PTSUNNY   76  31  19 S23G32    29.76F
SCOTTSBLUFF    PTSUNNY   80  33  18 S18G25    29.75F
SIDNEY         MOSUNNY   76  29  17 S17       29.84F

...WESTERN AND NORTH CENTRAL NEBRASKA...

CITY           SKY/WX    TMP DP  RH WIND       PRES   REMARKS
VALENTINE      CLOUDY    72  38  29 S29G41    29.76F
AINSWORTH      CLOUDY    70  41  35 S22G39    29.81F
ONEILL         CLOUDY    68  37  32 S21G35    29.89F
BROKEN BOW     PTSUNNY   69  42  37 S28G37    29.91F
IMPERIAL       SUNNY     76  37  24 S25G33    29.85S
NORTH PLATTE   MOSUNNY   70  42  36 S17G29    29.87S
MCCOOK         MOSUNNY   70  44  39 S24G35    29.91F

...EASTERN NEBRASKA...

CITY           SKY/WX    TMP DP  RH WIND       PRES   REMARKS
NORFOLK        CLOUDY    66  40  38 S22G32    29.98F
SO SIOUX CITY  MOSUNNY   67  37  33 S20G32    30.04F
TEKAMAH        MOSUNNY   68  37  32 S21       30.05F
COLUMBUS       PTSUNNY   66  39  37 S21G28    30.02F
ALBION         CLOUDY    66  40  37 S22G28    29.98S
OMAHA EPPLEY   PTSUNNY   68  38  33 S23G30    30.08F
OFFUTT AFB     SUNNY     68  40  36 S16G23    30.08F
MILLARD        SUNNY     68  39  35 S13G23    30.08F
LINCOLN        MOSUNNY   67  38  34 S17G26    30.06F
NEBRASKA CITY  SUNNY     67  38  34 S21       30.11F
BEATRICE       MOSUNNY   67  39  35 S15G24    30.07F
FALLS CITY     NOT AVBL

...NORTHERN KANSAS...

CITY           SKY/WX    TMP DP  RH WIND       PRES   REMARKS
GOODLAND       SUNNY     72  42  34 S28G37    29.90F
HILL CITY      SUNNY     72  41  32 S24G31    29.96F
PHILLIPSBURG   SUNNY     72  39  30 SE21G30   29.98S
SMITH CENTER   SUNNY     68  41  37 S25G31    30.01S
BELOIT         SUNNY     70  39  32 S17G25    30.02F
HAYS           SUNNY     70  43  37 S24G32    30.00F
RUSSELL        SUNNY     69  42  37 S26G32    30.00F
CONCORDIA      MOSUNNY   68  42  38 S20G26    30.05F
SALINA         MOSUNNY   70  42  36 S21G31    30.07F
TOPEKA         MOSUNNY   68  41  37 SE13      30.13F



USA.gov is the U.S. government's official web portal to all federal, state and local government web resources and services.